Location: Killarney
(45.9719°N, 81.5115°W)
Time: 06:58:36
(UTC-04:00)

ISS - Pass Details

Date: 22 April 2025
Orbit: 416 x 419 km, 51.6° (Epoch: 14 May)

Event Time Altitude Azimuth Distance (km) Brightness Sun altitude
Exits shadow 04:40:56 21° 164° (SSE) 996 -2.1 -16.9°
Maximum altitude 04:41:51 24° 138° (SE) 916 -2.0 -16.8°
Drops below altitude 10° 04:44:36 10° 83° (E) 1,495 -0.1 -16.4°
Sets 04:46:57 0° 69° (ENE) 2,362 1.5 -16.1°
